EW0742 Weather Reports


time (UTC)temp
C
wind
direction
speed
KPH
gust
KPH
rain 1hr
cm
rain 24hr
cm
rain mn
cm
humidity
%
barometer
mb
20260510100104 9 316 0.0 0.0 0.03 0.05 0.05 92 1007.1
20260510094555 9 214 0.0 3.2 0.03 0.05 0.05 92 1007.2
20260510093043 9 120 0.0 3.2 0.03 0.05 0.05 93 1007.5
20260510091542 9 338 0.0 0.0 0.00 0.03 0.03 93 1007.3
20260510090047 9 260 0.0 0.0 0.00 0.03 0.03 92 1007.0
20260510084559 9 336 0.0 0.0 0.00 0.03 0.03 92 1007.0
20260510083039 10 126 0.0 0.0 0.03 0.03 0.03 92 1007.0
20260510081548 10 167 0.0 0.0 0.03 0.03 0.03 91 1007.0
20260510080041 10 334 0.0 0.0 0.03 0.03 0.03 91 1007.3
20260510074536 10 148 0.0 4.8 0.03 0.03 0.03 89 1007.3
20260510073034 11 330 0.0 9.7 0.00 0.00 0.00 87 1007.2
20260510071539 11 185 0.0 6.4 0.00 0.00 0.00 88 1007.0
20260510070038 11 158 0.0 6.4 0.00 0.00 0.00 88 1007.1
20260510064532 11 181 0.0 9.7 0.00 0.00 0.00 85 1007.2
20260510063035 11 316 0.0 11.3 0.00 0.00 0.00 82 1007.1
20260510061529 11 122 0.0 3.2 0.00 0.00 0.00 83 1007.0
20260510060029 11 172 0.0 1.6 0.00 0.00 0.00 82 1007.0
20260510054528 11 133 0.0 8.0 0.00 0.00 0.00 82 1007.1
20260510053027 11 160 0.0 6.4 0.00 0.00 0.00 82 1007.0
20260510051524 11 163 0.0 8.0 0.00 0.00 0.00 82 1007.3
20260510050020 11 143 0.0 9.7 0.00 0.00 0.00 83 1006.9
20260510044528 10 170 0.0 3.2 0.00 0.00 0.00 84 1006.9
20260510043016 10 150 0.0 1.6 0.00 0.00 0.00 85 1006.9
20260510041513 9 132 0.0 0.0 0.00 0.00 0.00 87 1006.9
20260510040011 9 167 0.0 0.0 0.00 0.00 0.00 85 1006.4
20260510034507 10 358 0.0 0.0 0.00 0.00 0.00 84 1006.7
20260510033005 10 357 0.0 0.0 0.00 0.00 0.00 83 1007.0
20260510031504 10 112 0.0 0.0 0.00 0.00 0.00 83 1007.1
20260510030004 10 110 0.0 0.0 0.00 0.00 0.00 82 1007.1
20260510024502 10 127 0.0 4.8 0.00 0.00 0.00 82 1007.4
20260510023003 10 238 0.0 0.0 0.00 0.00 0.00 82 1007.3
20260510021501 10 120 0.0 8.0 0.00 0.00 0.00 83 1007.1
20260510020002 10 137 0.0 0.0 0.00 0.00 0.00 82 1007.4
20260510014600 10 145 0.0 4.8 0.00 0.00 0.00 82 1007.5
20260510013103 10 27 0.0 1.6 0.00 0.00 0.00 81 1007.4
20260510011601 10 322 0.0 0.0 0.00 0.00 0.00 81 1007.5
20260510004556 10 150 0.0 0.0 0.00 0.00 0.00 80 1007.7
20260510003057 10 122 0.0 0.0 0.00 0.00 0.00 80 1007.9
20260510001555 10 336 0.0 0.0 0.00 0.00 0.00 79 1007.9
20260510000106 11 336 0.0 0.0 0.00 0.00 0.00 79 1008.0
20260509234600 11 335 0.0 0.0 0.00 0.00 0.00 78 1008.0
20260509233054 11 274 0.0 0.0 0.00 0.00 0.00 77 1008.0
20260509231554 11 15 0.0 1.6 0.00 0.00 0.00 76 1007.9
20260509230052 11 1 0.0 0.0 0.00 0.00 0.00 74 1007.7
20260509224552 12 304 0.0 4.8 0.00 0.00 0.00 75 1007.8
20260509223100 12 141 0.0 0.0 0.00 0.00 0.00 74 1007.8
20260509221549 12 164 0.0 0.0 0.00 0.00 0.00 74 1008.1
20260509220047 12 169 0.0 0.0 0.00 0.00 0.00 74 1007.8
20260509214547 12 179 0.0 0.0 0.00 0.00 0.00 73 1008.1
20260509213044 12 175 0.0 11.3 0.00 0.00 0.00 70 1008.2
20260509211543 12 166 0.0 1.6 0.00 0.00 0.00 70 1008.2
20260509210046 12 155 0.0 0.0 0.00 0.00 0.00 70 1008.4
20260509204549 12 11 0.0 4.8 0.00 0.00 0.00 70 1008.5
20260509203039 13 160 0.0 6.4 0.00 0.00 0.00 66 1008.7
20260509201540 13 177 0.0 14.5 0.00 0.00 0.00 65 1008.5
20260509200045 13 108 0.0 9.7 0.00 0.00 0.00 64 1008.5
20260509194539 13 143 0.0 3.2 0.00 0.00 0.00 64 1008.6
20260509193036 13 174 0.0 0.0 0.00 0.00 0.00 63 1008.7
20260509191535 14 145 0.0 0.0 0.00 0.00 0.00 59 1008.8
20260509190035 15 174 0.0 1.6 0.00 0.00 0.00 59 1008.8
20260509184543 15 204 0.0 12.9 0.00 0.00 0.00 57 1008.9
20260509183032 14 353 1.6 16.1 0.00 0.00 0.00 55 1009.2
20260509181528 14 339 1.6 12.9 0.00 0.00 0.00 52 1009.2
20260509180026 14 340 0.0 11.3 0.00 0.00 0.00 54 1009.3
20260509174533 14 323 0.0 6.4 0.00 0.00 0.00 55 1009.4
20260509173024 13 154 0.0 4.8 0.00 0.00 0.00 52 1009.5
20260509171530 13 195 0.0 4.8 0.00 0.00 0.00 52 1009.6
20260509170022 14 165 0.0 4.8 0.00 0.00 0.00 51 1009.6
20260509164521 15 173 0.0 6.4 0.00 0.00 0.00 45 1009.7
20260509163023 15 145 0.0 3.2 0.00 0.00 0.00 44 1009.9
20260509161517 15 322 0.0 4.8 0.00 0.00 0.00 42 1010.0
20260509160015 15 158 0.0 6.4 0.00 0.00 0.00 40 1010.3
20260509154515 15 143 0.0 4.8 0.00 0.00 0.00 41 1010.6
20260509153017 15 340 0.0 8.0 0.00 0.00 0.00 44 1010.9
20260509151504 14 324 0.0 8.0 0.00 0.00 0.00 40 1011.2
20260509150002 14 141 0.0 6.4 0.00 0.00 0.00 41 1011.3
20260509144611 13 173 0.0 6.4 0.00 0.00 0.00 43 1011.4
20260509143131 13 141 0.0 11.3 0.00 0.00 0.00 45 1011.6
20260509141557 13 153 0.0 4.8 0.00 0.00 0.00 49 1011.5
20260509140105 13 156 0.0 4.8 0.00 0.00 0.00 49 1011.5
20260509134610 13 169 0.0 4.8 0.00 0.00 0.00 46 1011.6
20260509133052 13 4 0.0 3.2 0.00 0.00 0.00 48 1011.6
20260509131548 12 316 0.0 3.2 0.00 0.00 0.00 49 1011.8
20260509130055 12 333 0.0 4.8 0.00 0.00 0.00 52 1011.9
20260509124536 9 148 0.0 0.0 0.00 0.00 0.00 60 1012.1
20260509123029 7 154 0.0 0.0 0.00 0.00 0.00 65 1012.2
20260509121538 5 152 0.0 0.0 0.00 0.00 0.00 71 1012.3
20260509120020 4 144 0.0 0.0 0.00 0.00 0.00 76 1012.3
20260509114528 3 158 0.0 0.0 0.00 0.00 0.00 79 1012.4
20260509113022 2 156 0.0 0.0 0.00 0.00 0.00 82 1012.4
20260509111510 1 143 0.0 0.0 0.00 0.00 0.00 84 1012.4
20260509110009 0 300 0.0 0.0 0.00 0.00 0.00 86 1012.5
20260509104508 0 301 0.0 0.0 0.00 0.00 0.00 87 1012.4
20260509103007 0 169 0.0 0.0 0.00 0.00 0.00 88 1012.3
20260509101506 0 160 0.0 0.0 0.00 0.00 0.00 89 1012.2